GW7141 Weather Reports


time (UTC)temp
C
wind
direction
speed
KPH
gust
KPH
rain 1hr
cm
rain 24hr
cm
rain mn
cm
humidity
%
barometer
mb
20260503224517 18 356 27.4 40.2 0.00 0.00 0.00 22 1001.4
20260503223020 18 338 35.4 51.5 0.00 0.00 0.00 23 1000.4
20260503221529 19 339 29.0 45.1 0.00 0.00 0.00 23 1001.4
20260503220029 18 349 19.3 27.4 0.00 0.00 0.00 24 1001.1
20260503214528 18 350 29.0 46.7 0.00 0.00 0.00 23 1001.5
20260503213023 18 342 19.3 37.0 0.00 0.00 0.00 25 1001.6
20260503211506 18 338 24.1 41.8 0.00 0.00 0.00 25 1001.7
20260503210009 18 340 27.4 43.5 0.00 0.00 0.00 25 1001.8
20260503204512 17 359 19.3 40.2 0.00 0.00 0.00 25 1002.3
20260503203020 17 360 24.1 48.3 0.00 0.00 0.00 24 998.0
20260503201522 17 359 16.1 37.0 0.00 0.00 0.00 25 1002.5
20260503200005 17 348 24.1 37.0 0.00 0.00 0.00 24 1002.6
20260503194527 17 344 27.4 33.8 0.00 0.00 0.00 24 1002.6
20260503193026 17 349 17.7 33.8 0.00 0.00 0.00 22 1003.0
20260503191527 17 334 16.1 35.4 0.00 0.00 0.00 20 1003.0
20260503190024 17 359 8.0 32.2 0.00 0.00 0.00 20 1003.1
20260503184515 17 341 16.1 51.5 0.00 0.00 0.00 19 1003.4
20260503183017 17 340 20.9 37.0 0.00 0.00 0.00 19 1003.5
20260503181518 16 344 9.7 43.5 0.00 0.00 0.00 19 1003.7
20260503180026 16 4 24.1 41.8 0.00 0.00 0.00 20 1001.7
20260503174526 16 1 22.5 46.7 0.00 0.00 0.00 18 999.7
20260503173016 16 335 19.3 35.4 0.00 0.00 0.00 18 1004.0
20260503171526 16 336 14.5 40.2 0.00 0.00 0.00 23 1004.0
20260503081531 -17 0.0 0.0 0.00 0.00 0.00 1004.3
20260503071532 5 4.8 6.4 0.00 0.00 0.00 68 1005.2
20260503054531 5 179 4.8 8.0 0.00 0.00 0.00 65 1006.2
20260503053026 4 179 4.8 9.7 0.00 0.00 0.00 68 1006.6
20260503051515 4 185 6.4 8.0 0.00 0.00 0.00 70 1006.8
20260503050030 4 185 9.7 11.3 0.00 0.00 0.00 70 1006.7
20260503044525 4 212 4.8 8.0 0.00 0.00 0.00 72 1006.9
20260503043024 4 212 4.8 8.0 0.00 0.00 0.00 74 1006.8
20260503041535 4 212 4.8 8.0 0.00 0.00 0.00 75 1007.1
20260503040028 3 212 1.6 3.2 0.00 0.00 0.00 77 1007.5
20260503034520 3 212 3.2 4.8 0.00 0.00 0.00 76 1007.3
20260503033022 3 207 0.0 3.2 0.00 0.00 0.00 74 1007.5
20260503031525 3 195 0.0 3.2 0.00 0.00 0.00 75 1007.7
20260503030028 3 185 0.0 3.2 0.00 0.00 0.00 75 1007.7
20260503024518 3 181 1.6 8.0 0.00 0.00 0.00 74 1007.8
20260503023021 5 157 8.0 20.9 0.00 0.00 0.00 70 1007.6
20260503021527 4 127 17.7 20.9 0.00 0.00 0.00 68 1002.8
20260503020027 5 146 9.7 12.9 0.00 0.00 0.00 70 1007.5
20260503014527 5 140 8.0 20.9 0.00 0.00 0.00 68 1007.5
20260503013023 5 142 6.4 14.5 0.00 0.00 0.00 68 1007.4
20260503011524 4 132 8.0 14.5 0.00 0.00 0.00 73 1007.3
20260503010027 3 129 12.9 20.9 0.00 0.00 0.00 74 1007.0
20260503004503 4 136 22.5 24.1 0.00 0.00 0.00 71 1006.9
20260503003003 5 110 14.5 27.4 0.00 0.00 0.00 69 1007.1
20260503001506 5 119 27.4 32.2 0.00 0.00 0.00 63 1007.0
20260503000004 16 287 9.7 17.7 0.00 0.00 0.00 35 1007.0
20260502234504 16 287 17.7 25.7 0.00 0.00 0.00 36 1007.1
20260502233003 16 287 20.9 24.1 0.00 0.00 0.00 36 1006.9
20260502231503 16 282 19.3 30.6 0.00 0.00 0.00 34 1007.5
20260502230009 17 287 24.1 37.0 0.00 0.00 0.00 34 1007.6